Location: El Sauzal
(28.4667°N, 16.4167°W)
Time: 20:16:18
(UTC+00:00)

Daily predictions for brighter satellites

Satellite Brightness Start Highest point End
(mag) Time Altitude Azimuth Time Altitude Azimuth Time Altitude Azimuth
USA 234 4.4 18:57:35 10° E 19:02:18 22° NE 19:07:01 10° NNW
CZ-4 R/B 2.3 19:01:35 10° SE 19:05:01 27° ENE 19:08:32 10° NNE
YAOGAN 1 3.7 19:02:28 10° ESE 19:05:47 22° ENE 19:09:07 10° NNE
SL-4 R/B 4.3 19:07:11 10° SSE 19:09:43 14° SE 19:12:14 10° E
Cosmos 1455 2.6 19:06:22 10° NNW 19:10:06 68° W 19:13:48 10° S
DELTA 2 R/B (1) 4.1 19:05:04 10° NW 19:10:21 42° NNE 19:15:38 10° E
ADEOS Rocket 4.2 19:04:26 10° NE 19:10:52 33° E 19:17:35 10° SSE
OAO 3 Rocket 3.7 19:06:35 10° W 19:11:05 48° NNW 19:15:35 10° ENE
CCE 1 Rocket 4.3 19:08:18 10° WSW 19:14:55 58° SSE 19:19:02 10° E
Mugunghwa Rocket 4.3 19:12:10 10° W 19:18:27 67° S 19:25:08 10° ESE
Timation 1 Rocket 4.3 19:13:23 10° S 19:19:17 72° ESE 19:25:15 10° NNE
Meteor 2-10 Rocket 4.0 19:16:14 10° NNW 19:21:16 64° W 19:26:12 10° S
USA 238 DEB 3.7 19:15:02 10° SSW 19:21:39 89° NW 19:28:26 10° NNE
USA 238 3.7 19:15:08 10° SSW 19:21:44 90° SSW 19:28:32 10° NNE
GPS 2-05 Rocket1 4.0 19:21:27 10° WNW 19:23:24 19° N 19:25:05 11° NE
YAOGAN 6 2.8 19:20:47 10° S 19:24:26 79° WSW 19:28:05 10° NNW
Fermi 4.4 19:20:47 10° WSW 19:24:47 48° S 19:28:21 12° E
ATLAS CENTAUR R/B 1.1 19:21:10 10° NNW 19:24:53 54° ENE 19:28:23 10° SE
OAO 2 Rocket 3.8 19:20:36 10° W 19:25:22 49° NNW 19:29:31 13° ENE
Cosmos 2056 Rocket 3.6 19:22:47 10° S 19:27:53 57° ESE 19:33:05 10° NNE
H-2A ROCKET BODY 2.1 19:19:47 10° W 19:30:25 73° SSW 19:33:12 12° ESE
CZ-2D R/B 4.0 19:27:58 10° SE 19:31:20 30° ENE 19:34:43 10° NNE
Cosmos 1727 Rocket 3.9 19:27:48 10° N 19:34:00 83° E 19:40:11 10° S
Haruka 2.6 19:34:35 10° W 19:37:51 65° N 19:41:19 18° ENE
Delta 2 Rocket 4.1 19:37:01 10° WSW 19:42:46 88° SSE 19:46:38 21° ENE
H-2A DEB 3.4 19:39:22 10° WSW 19:43:22 71° S 19:44:40 26° E
Genesis I 3.4 19:41:59 10° S 19:45:49 51° ESE 19:48:07 22° NE
Cosmos 1356 Rocket 4.1 19:42:52 10° NNW 19:46:55 56° W 19:51:00 10° S
SL-16 R/B 3.5 19:44:14 10° NW 19:49:33 44° WSW 19:54:51 10° S
Cosmos 1869 3.8 19:46:02 10° NNE 19:49:39 34° E 19:53:14 10° SSE
Cosmos 1842 Rocket 3.7 19:45:48 10° N 19:50:17 80° W 19:54:45 10° S
Cosmos 2263 Rocket 3.0 19:48:16 10° SW 19:53:38 51° WNW 19:59:04 10° N
Cosmos 1939 Rocket 2.7 19:49:53 10° SSE 19:53:44 65° ENE 19:57:41 10° N
Cosmos 1821 Rocket 4.3 19:52:09 10° S 19:58:30 74° W 20:04:49 10° N
Aureole 1 Rocket 4.5 19:50:58 10° NNW 19:59:31 76° ENE 20:06:55 10° SSE
Iridium 45 4.4 19:58:31 10° N 20:02:11 71° E 20:05:41 10° S
GPS 2-14 Rocket1 4.3 19:59:14 10° SW 20:02:24 24° S 20:03:47 20° SE
Cosmos 1603 3.7 19:57:36 10° N 20:03:08 56° ENE 20:08:37 10° SSE
ATLAS 3B R/B 2.8 19:56:50 10° S 20:03:21 52° ESE 20:07:10 25° NE
Cosmos 1844 Rocket 3.4 19:59:02 10° SSE 20:03:49 30° ESE 20:04:12 30° E
NOAA 11 4.2 19:59:03 10° S 20:04:32 84° WSW 20:10:03 10° NNW
Cosmos 1076 Rocket 4.1 20:02:12 10° SSW 20:06:25 58° W 20:10:41 10° N
Cosmos 1452 Rocket 3.7 20:04:57 10° S 20:09:58 47° ESE 20:11:29 36° ENE
Cosmos 1605 Rocket 4.1 20:03:59 10° SSE 20:10:00 50° E 20:16:07 10° NNE
Cosmos 2221 3.1 20:07:11 10° NNW 20:11:24 58° W 20:15:39 10° S
NOSS 3-2 (C) 3.7 20:09:13 10° SW 20:14:40 60° WNW 20:19:51 14° NNE
Cosmos 1892 2.6 20:11:11 10° S 20:15:03 89° W 20:16:54 30° N
Cosmos 2151 3.0 20:11:04 10° S 20:14:53 52° ESE 20:14:53 52° ESE
CENTAUR R/B 2.4 20:12:19 10° SSW 20:17:50 79° WNW 20:22:18 20° NNE
Cosmos 2058 3.9 20:15:03 10° SSW 20:18:59 46° W 20:22:59 10° N
OAO 3 Copernicus 4.5 20:16:29 10° SW 20:21:23 53° SSE 20:22:07 49° ESE
Okean 3 Rocket 3.4 20:20:37 10° S 20:25:02 78° E 20:25:51 58° NNE
Cosmos 1934 Rocket 4.1 20:20:09 10° SSW 20:26:12 71° W 20:32:14 10° N
DMSP B5D2-7 4.5 20:23:57 10° SSE 20:29:21 76° ENE 20:34:45 10° N
Cosmos 1943 3.0 20:24:45 10° NNW 20:30:25 75° ENE 20:33:50 25° SSE
Atlas Centaur 2 1.7 20:27:45 10° W 20:32:04 74° SSW 20:32:34 66° SSE
Cosmos 1420 Rocket 4.2 20:27:36 10° SSW 20:32:45 70° WNW 20:35:36 27° N
Cosmos 407 Rocket 3.4 20:27:58 10° NNW 20:33:13 86° WSW 20:38:22 10° SSE
Cosmos 1190 Rocket 3.9 20:30:55 10° NNW 20:36:15 86° ENE 20:38:59 30° SSE
Cosmos 2123 Rocket 3.8 20:30:20 10° N 20:36:38 83° E 20:42:51 10° S
Ariane Rocket 3.0 20:39:33 10° S 20:44:36 80° WSW 20:49:42 10° NNW
USA 234 3.1 20:42:00 40° SE 20:44:40 89° NE 20:51:13 10° NW
SL-4 R/B 2.8 20:44:21 10° SW 20:48:32 59° W 20:48:32 59° W
DELTA 2 R/B (1) 3.9 20:51:27 10° WNW 20:56:56 59° SW 20:57:00 59° SSW
Cosmos 1844 4.3 20:53:47 10° SSW 20:57:49 48° S 20:57:49 48° S
FALCON 9 R/B 3.2 21:08:54 10° W 21:22:01 54° NNW 21:22:01 54° NNW
ATLAS 3B R/B 4.4 21:49:02 10° WSW 21:54:14 23° NW 21:54:30 23° NW
